SIRIUS-1 1 26390U 00035A 10243.93526857 .00000090 00000-0 10000-3 0 7477 2 26390 61.1167 251.5128 2696767 269.5604 59.8973 1.00274146 37267 SIRIUS-2 1 26483U 00051A 10244.59800051 .00000040 00000-0 10000-3 0 3877 2 26483 63.8044 131.6090 2662801 270.4047 57.8310 1.00287990 36604 SIRIUS-3 1 26626U 00077A 10243.27080420 -.00000115 00000-0 10000-3 0 6459 2 26626 63.8913 11.2059 2690543 269.7963 59.7925 1.00282585 35728 XM-2 (ROCK) 1 26724U 01012A 10245.19634419 -.00000210 00000-0 00000+0 0 8255 2 26724 0.0957 270.7896 0000420 8.6497 47.2722 1.00272571 34728 XM-1 (ROLL) 1 26761U 01018A 10242.36396473 -.00000204 00000-0 00000+0 0 6210 2 26761 0.0704 273.4539 0000551 222.7584 248.0780 1.00270418 34176 XM-3 (RHYTHM) 1 28626U 05008A 10245.19634499 -.00000210 00000-0 00000+0 0 7995 2 28626 0.0416 279.4505 0000362 102.0086 305.3949 1.00271182 20239 XM-4 (BLUES) 1 29520U 06049A 10242.34818559 -.00000024 00000-0 10000-3 0 5761 2 29520 0.0442 278.0682 0000208 354.5629 76.1864 1.00274451 14143